Home > Weather > Sandefjord > Past weeks

Flag for Norway Weather for the Past 2 Weeks in Sandefjord, Norway

Now
57 °F

Sunny.


Feels Like: 55 °F
Forecast: 38 / 58 °F
Wind: 12 mph from South

Location: Torp

Current Time: May 6, 2016 at 1:27:10 PM

Latest Report: May 6, 2016 at 12:50 PM


Visibility: 10 mi

Pressure: 30.24 "Hg

Humidity: 44%

Dew Point: 36 °F

Location of SandefjordLocation

Historic Weather in Sandefjord — Graph

°F

Sandefjord Temperature Yesterday

Maximum temperature yesterday: 54 °F (at 9:50 AM)
Minimum temperature yesterday: 41 °F (at 4:50 AM)
Average temperature yesterday: 49 °F

High & Low Weather Summary for the Past Weeks

 TemperatureHumidityPressure
High59 °F (Apr 21, 2:50 PM)100% (Apr 24, 7:20 PM)30.33 "Hg (Apr 24, 7:20 PM)
Low30 °F (Apr 23, 5:20 AM)28% (Apr 21, 5:20 PM)29.59 "Hg (Apr 25, 3:20 PM)
Average43 °F74%29.96 "Hg
* Reported Apr 21 11:20 AM — May 6 11:50 AM, Sandefjord, Weather by CustomWeather, © 2016

Note: Actual official high and low records may vary slightly from our data, if they occured in-between our weather recording intervals... More about our weather records

Advertising

Sandefjord Weather History for the Previous 24 Hours

Scroll right to see more
 ConditionsComfort  
Time TempWeatherWind HumidityBarometerVisibility
11:50 AM
Fri, May 6
57 °FSunny.12 mph44%30.24 "Hg10 mi
11:20 AM57 °FPassing clouds.13 mph44%30.24 "HgN/A
10:50 AM55 °FSunny.12 mph51%30.24 "Hg10 mi
10:20 AM55 °FSunny.10 mph59%30.24 "Hg10 mi
9:50 AM54 °FSunny.8 mph63%30.24 "Hg10 mi
9:20 AM54 °FSunny.7 mph58%30.24 "Hg10 mi
8:50 AM52 °FSunny.7 mph67%30.24 "Hg10 mi
8:20 AM50 °FPassing clouds.3 mph76%30.24 "HgN/A
7:50 AM48 °FSunny.2 mph76%30.24 "Hg10 mi
7:20 AM46 °FSunny.2 mph87%30.24 "Hg10 mi
6:50 AM45 °FSunny.1 mph87%30.24 "Hg10 mi
6:20 AM41 °FSunny.2 mph93%30.24 "Hg10 mi
5:50 AM43 °FClear.3 mph87%30.24 "Hg10 mi
5:20 AM43 °FQuite cool.3 mph87%30.24 "HgN/A
4:50 AM43 °FQuite cool.3 mph87%30.24 "HgN/A
4:20 AM45 °FQuite cool.7 mph87%30.24 "HgN/A
3:50 AM45 °FQuite cool.9 mph87%30.24 "HgN/A
3:20 AM45 °FQuite cool.8 mph87%30.24 "HgN/A
2:50 AM45 °FQuite cool.7 mph93%30.27 "HgN/A
2:20 AM45 °FQuite cool.8 mph93%30.27 "HgN/A
1:50 AM45 °FQuite cool.9 mph93%30.27 "HgN/A
1:20 AM45 °FQuite cool.7 mph93%30.27 "HgN/A
12:50 AM45 °FQuite cool.8 mph93%30.27 "HgN/A
12:20 AM45 °FQuite cool.8 mph93%30.24 "HgN/A
11:50 PM
Thu, May 5
45 °FQuite cool.8 mph93%30.27 "HgN/A
11:20 PM46 °FCool.9 mph87%30.27 "HgN/A
10:50 PM46 °FClear.9 mph82%30.27 "Hg10 mi
10:20 PM46 °FSunny.8 mph82%30.27 "Hg10 mi
9:50 PM48 °FSunny.8 mph71%30.27 "Hg10 mi
9:20 PM48 °FSunny.10 mph71%30.27 "Hg10 mi
8:50 PM48 °FSunny.12 mph71%30.27 "Hg10 mi
8:20 PM50 °FSunny.12 mph67%30.27 "Hg10 mi
7:50 PM50 °FSunny.15 mph62%30.27 "Hg10 mi
7:20 PM52 °FSunny.15 mph54%30.27 "Hg10 mi
6:50 PM52 °FSunny.15 mph54%30.30 "Hg10 mi
6:20 PM52 °FSunny.17 mph50%30.30 "Hg10 mi
5:50 PM54 °FSunny.16 mph47%30.30 "Hg10 mi
5:20 PM52 °FSunny.17 mph54%30.30 "Hg10 mi
4:50 PM54 °FSunny.16 mph51%30.30 "Hg10 mi
4:20 PM54 °FSunny.18 mph51%30.30 "Hg10 mi
3:50 PM54 °FSunny.20 mph54%30.33 "Hg10 mi
3:20 PM54 °FSunny.20 mph54%30.33 "Hg10 mi
2:50 PM54 °FSunny.21 mph54%30.33 "Hg10 mi
2:20 PM54 °FSunny.21 mph54%30.33 "Hg10 mi
1:50 PM54 °FSunny.20 mph58%30.33 "Hg10 mi
1:20 PM54 °FPassing clouds.18 mph63%30.33 "HgN/A
Weather by CustomWeather, © 2016

See weather overviewHow to use our weather pages